,,,PA_Meas_PMT16A,,PR_Meas_QMR101_102,,RH_Meas_QMH101,,SR_Meas_QMS101,,TA_Meas_QMH101,,GenWind,,GenWind,
date,time,status,PA,status,PR,status,RH,status,SR,status,TA,status,DirAvg,status,SpdAvg,
2011-10-12, 00:00:04,VALID,1005.9,VALID,0,VALID,91.6457,VALID,0,VALID,25.4539,VALID,7,VALID,0.729688,
2011-10-12, 00:01:04,VALID,1005.93,VALID,0,VALID,91.5466,VALID,0,VALID,25.4734,VALID,38,VALID,0.253125,
2011-10-12, 00:02:04,VALID,1005.92,VALID,0,VALID,91.3711,VALID,0,VALID,25.4928,VALID,38,VALID,0.0105469,
2011-10-12, 00:03:04,VALID,1005.93,VALID,0,VALID,91.4398,VALID,0.0815089,VALID,25.5123,VALID,38,VALID,0.0714844,
2011-10-12, 00:04:04,VALID,1005.93,VALID,0,VALID,91.3101,VALID,0,VALID,25.4928,VALID,50,VALID,0.392188,
2011-10-12, 00:05:04,VALID,1005.92,VALID,0,VALID,91.3024,VALID,0,VALID,25.5123,VALID,82,VALID,0.226953,
2011-10-12, 00:06:04,VALID,1005.93,VALID,0,VALID,91.5389,VALID,0,VALID,25.5123,VALID,82,VALID,0.25,
2011-10-12, 00:07:04,VALID,1005.91,VALID,0,VALID,91.3024,VALID,0,VALID,25.4928,VALID,82,VALID,0.0964844,
2011-10-12, 00:08:04,VALID,1005.92,VALID,0,VALID,91.5161,VALID,0,VALID,25.4734,VALID,82,VALID,0.0605469,
2011-10-12, 00:09:04,VALID,1005.88,VALID,0,VALID,91.6839,VALID,0,VALID,25.4344,VALID,72,VALID,0.342187,
2011-10-12, 00:10:04,VALID,1005.86,VALID,0,VALID,91.7525,VALID,0,VALID,25.4363,VALID,20,VALID,0.480469,
2011-10-12, 00:11:04,VALID,1005.82,VALID,0,VALID,92.0196,VALID,0,VALID,25.3955,VALID,38,VALID,0.349609,
2011-10-12, 00:12:04,VALID,1005.81,VALID,0,VALID,92.1492,VALID,0,VALID,25.3955,VALID,32,VALID,0.358594,
2011-10-12, 00:13:04,VALID,1005.82,VALID,0,VALID,91.9814,VALID,0,VALID,25.4363,VALID,26,VALID,0.669922,
2011-10-12, 00:14:04,VALID,1005.77,VALID,0,VALID,91.7144,VALID,0,VALID,25.4344,VALID,11,VALID,0.615234,
2011-10-12, 00:15:04,VALID,1005.74,VALID,0,VALID,91.4703,VALID,0,VALID,25.4539,VALID,15,VALID,0.763672,
2011-10-12, 00:16:04,VALID,1005.74,VALID,0,VALID,90.8752,VALID,0,VALID,25.4928,VALID,28,VALID,0.954297,
2011-10-12, 00:17:04,VALID,1005.7,VALID,0,VALID,91.1956,VALID,0,VALID,25.5513,VALID,28,VALID,0.364453,
2011-10-12, 00:18:04,VALID,1005.69,VALID,0,VALID,91.0888,VALID,0,VALID,25.5707,VALID,27,VALID,0.176953,
2011-10-12, 00:19:04,VALID,1005.67,VALID,0,VALID,91.0659,VALID,0,VALID,25.5707,VALID,27,VALID,0.365625,
2011-10-12, 00:20:04,VALID,1005.65,VALID,0,VALID,91.1499,VALID,0,VALID,25.5513,VALID,27,VALID,0.0136719,
2011-10-12, 00:21:04,VALID,1005.62,VALID,0,VALID,91.2262,VALID,0,VALID,25.5707,VALID,28,VALID,0.185937,
2011-10-12, 00:22:04,VALID,1005.61,VALID,0,VALID,91.2796,VALID,0,VALID,25.5123,VALID,65,VALID,0.512109,
2011-10-12, 00:23:04,VALID,1005.58,VALID,0,VALID,91.4626,VALID,0,VALID,25.5142,VALID,72,VALID,0.025,
2011-10-12, 00:24:04,VALID,1005.58,VALID,0,VALID,91.455,VALID,0,VALID,25.4539,VALID,72,VALID,0.178906,
2011-10-12, 00:25:04,VALID,1005.56,VALID,0,VALID,91.5771,VALID,0,VALID,25.4558,VALID,34,VALID,0.169922,
2011-10-12, 00:26:04,VALID,1005.57,VALID,0,VALID,91.6839,VALID,0,VALID,25.4363,VALID,27,VALID,0.222266,
2011-10-12, 00:27:04,VALID,1005.54,VALID,0,VALID,91.8288,VALID,0,VALID,25.3955,VALID,27,VALID,0,
2011-10-12, 00:28:04,VALID,1005.51,VALID,0,VALID,91.8822,VALID,0,VALID,25.3974,VALID,27,VALID,0.253906,
2011-10-12, 00:29:04,VALID,1005.47,VALID,0,VALID,91.8212,VALID,0,VALID,25.3955,VALID,24,VALID,0.571484,
2011-10-12, 00:30:04,VALID,1005.47,VALID,0,VALID,91.6305,VALID,0,VALID,25.4149,VALID,15,VALID,0.570313,
2011-10-12, 00:31:04,VALID,1005.45,VALID,0,VALID,91.6305,VALID,0.0815089,VALID,25.4539,VALID,18,VALID,0.525391,
2011-10-12, 00:32:04,VALID,1005.45,VALID,0,VALID,91.4474,VALID,0,VALID,25.4753,VALID,38,VALID,0.604297,
2011-10-12, 00:33:04,VALID,1005.43,VALID,0,VALID,91.3787,VALID,0,VALID,25.452,VALID,32,VALID,0.439844,
2011-10-12, 00:34:04,VALID,1005.4,VALID,0,VALID,91.1041,VALID,0,VALID,25.4928,VALID,44,VALID,0.587109,
2011-10-12, 00:35:04,VALID,1005.37,VALID,0,VALID,91.1117,VALID,0,VALID,25.5318,VALID,37,VALID,0.455469,
2011-10-12, 00:36:04,VALID,1005.36,VALID,0,VALID,91.1422,VALID,0,VALID,25.5318,VALID,37,VALID,0.290625,
2011-10-12, 00:37:04,VALID,1005.32,VALID,0,VALID,90.6998,VALID,0.0815089,VALID,25.4909,VALID,2,VALID,1.5207,
2011-10-12, 00:38:04,VALID,1005.31,VALID,0,VALID,90.6616,VALID,0,VALID,25.5513,VALID,17,VALID,0.117188,
2011-10-12, 00:39:05,VALID,1005.3,VALID,0,VALID,90.6006,VALID,0,VALID,25.5513,VALID,23,VALID,0.4125,
2011-10-12, 00:40:05,VALID,1005.26,VALID,0,VALID,90.242,VALID,0,VALID,25.5707,VALID,56,VALID,0.744922,
2011-10-12, 00:41:05,VALID,1005.28,VALID,0,VALID,90.2573,VALID,0,VALID,25.5902,VALID,80,VALID,0.380078,
2011-10-12, 00:42:05,VALID,1005.25,VALID,0,VALID,90.242,VALID,0,VALID,25.5902,VALID,43,VALID,0.456641,
2011-10-12, 00:43:05,VALID,1005.21,VALID,0,VALID,90.2039,VALID,0.0815089,VALID,25.5902,VALID,61,VALID,0.453516,
2011-10-12, 00:44:05,VALID,1005.23,VALID,0,VALID,90.4404,VALID,0,VALID,25.5902,VALID,51,VALID,0.317187,
2011-10-12, 00:45:05,VALID,1005.22,VALID,0,VALID,90.4633,VALID,0,VALID,25.5707,VALID,53,VALID,0.178906,
2011-10-12, 00:46:05,VALID,1005.2,VALID,0,VALID,90.387,VALID,0,VALID,25.5318,VALID,18,VALID,0.560938,
2011-10-12, 00:47:05,VALID,1005.23,VALID,0,VALID,90.4633,VALID,0,VALID,25.5318,VALID,18,VALID,0.459375,
2011-10-12, 00:48:05,VALID,1005.25,VALID,0,VALID,90.5014,VALID,0,VALID,25.5318,VALID,9,VALID,0.76875,
2011-10-12, 00:49:05,VALID,1005.24,VALID,0,VALID,90.5396,VALID,0,VALID,25.5104,VALID,9,VALID,0.215625,
2011-10-12, 00:50:05,VALID,1005.28,VALID,0,VALID,90.4556,VALID,0.0815089,VALID,25.5532,VALID,22,VALID,0.773047,
2011-10-12, 00:51:05,VALID,1005.29,VALID,0,VALID,90.6464,VALID,0,VALID,25.5123,VALID,21,VALID,0.572266,
2011-10-12, 00:52:05,VALID,1005.31,VALID,0,VALID,90.6616,VALID,0,VALID,25.5318,VALID,346,VALID,0.371875,
2011-10-12, 00:53:05,VALID,1005.35,VALID,0,VALID,90.6006,VALID,0.0815089,VALID,25.5318,VALID,35,VALID,0.584766,
2011-10-12, 00:54:05,VALID,1005.3,VALID,0,VALID,90.5396,VALID,0,VALID,25.4714,VALID,27,VALID,0.514844,
2011-10-12, 00:55:05,VALID,1005.33,VALID,0,VALID,90.6082,VALID,0.0815089,VALID,25.4714,VALID,37,VALID,0.651172,
2011-10-12, 00:56:05,VALID,1005.33,VALID,0,VALID,90.6082,VALID,0,VALID,25.4928,VALID,360,VALID,1.17305,
2011-10-12, 00:57:05,VALID,1005.33,VALID,0,VALID,89.9979,VALID,0,VALID,25.5123,VALID,343,VALID,1.82539,
2011-10-12, 00:58:05,VALID,1005.35,VALID,0,VALID,89.7919,VALID,0,VALID,25.67,VALID,23,VALID,0.936328,
2011-10-12, 00:59:05,VALID,1005.32,VALID,0,VALID,89.6012,VALID,0,VALID,25.6681,VALID,19,VALID,0.601953,
2011-10-12, 01:00:05,VALID,1005.3,VALID,0,VALID,89.38,VALID,0,VALID,25.6681,VALID,9,VALID,1.19883,
2011-10-12, 01:01:05,VALID,1005.26,VALID,0,VALID,89.296,VALID,0,VALID,25.6876,VALID,3,VALID,1.05273,
2011-10-12, 01:02:05,VALID,1005.21,VALID,0,VALID,89.113,VALID,0,VALID,25.748,VALID,30,VALID,0.907812,
2011-10-12, 01:03:05,VALID,1005.19,VALID,0,VALID,89.113,VALID,0,VALID,25.746,VALID,19,VALID,1.11133,
2011-10-12, 01:04:05,VALID,1005.14,VALID,0,VALID,88.9527,VALID,0.0815089,VALID,25.746,VALID,24,VALID,0.631641,
2011-10-12, 01:05:05,VALID,1005.11,VALID,0,VALID,89.113,VALID,0,VALID,25.746,VALID,28,VALID,0.809375,
2011-10-12, 01:06:05,VALID,1005.07,VALID,0,VALID,89.1358,VALID,0.0815089,VALID,25.7265,VALID,24,VALID,0.376953,
2011-10-12, 01:07:05,VALID,1005.07,VALID,0,VALID,89.1358,VALID,0,VALID,25.6876,VALID,26,VALID,0.698438,
2011-10-12, 01:08:05,VALID,1005.09,VALID,0,VALID,89.2579,VALID,0,VALID,25.6681,VALID,37,VALID,0.516016,
2011-10-12, 01:09:05,VALID,1005.03,VALID,0,VALID,89.4715,VALID,0,VALID,25.67,VALID,36,VALID,0,
2011-10-12, 01:10:05,VALID,1005.05,VALID,0,VALID,89.4791,VALID,0,VALID,25.6097,VALID,85,VALID,0.698828,
2011-10-12, 01:11:05,VALID,1005.06,VALID,0,VALID,89.7233,VALID,0.0815089,VALID,25.5902,VALID,89,VALID,0.519922,
2011-10-12, 01:12:05,VALID,1005.02,VALID,0,VALID,89.8301,VALID,0,VALID,25.5318,VALID,89,VALID,0.370703,
2011-10-12, 01:13:05,VALID,1005.07,VALID,0,VALID,90.0055,VALID,0,VALID,25.5123,VALID,88,VALID,0.319922,
2011-10-12, 01:14:05,VALID,1005.03,VALID,0,VALID,90.2954,VALID,0,VALID,25.4928,VALID,88,VALID,0.401563,
2011-10-12, 01:15:05,VALID,1005,VALID,0,VALID,90.3031,VALID,0,VALID,25.4753,VALID,88,VALID,0.217578,
2011-10-12, 01:16:05,VALID,1005.01,VALID,0,VALID,90.4556,VALID,0,VALID,25.4149,VALID,88,VALID,0.303516,
2011-10-12, 01:17:05,VALID,1005.02,VALID,0,VALID,90.5777,VALID,0,VALID,25.3955,VALID,55,VALID,0.4375,
2011-10-12, 01:18:05,VALID,1005,VALID,0,VALID,90.5167,VALID,0,VALID,25.376,VALID,2,VALID,0.579297,
2011-10-12, 01:19:05,VALID,1004.98,VALID,0,VALID,90.4022,VALID,0,VALID,25.3955,VALID,11,VALID,0.426172,
2011-10-12, 01:20:05,VALID,1004.99,VALID,0,VALID,90.4099,VALID,0,VALID,25.3955,VALID,18,VALID,0.00351562,
2011-10-12, 01:21:05,VALID,1004.99,VALID,0,VALID,90.4938,VALID,0,VALID,25.376,VALID,19,VALID,0.724219,
2011-10-12, 01:22:05,VALID,1005.01,VALID,0,VALID,90.3412,VALID,0,VALID,25.3955,VALID,29,VALID,1.19102,
2011-10-12, 01:23:05,VALID,1005.01,VALID,0,VALID,90.1276,VALID,0,VALID,25.4344,VALID,21,VALID,0.91875,
2011-10-12, 01:24:05,VALID,1004.97,VALID,0,VALID,89.9674,VALID,0,VALID,25.4539,VALID,6,VALID,0.630859,
2011-10-12, 01:25:05,VALID,1004.98,VALID,0,VALID,89.8835,VALID,0,VALID,25.4539,VALID,40,VALID,0.726953,
2011-10-12, 01:26:05,VALID,1004.94,VALID,0,VALID,89.7156,VALID,0,VALID,25.5142,VALID,342,VALID,1.24531,
2011-10-12, 01:27:05,VALID,1004.95,VALID,0,VALID,89.6851,VALID,0,VALID,25.5123,VALID,15,VALID,0.238672,
2011-10-12, 01:28:05,VALID,1004.93,VALID,0,VALID,89.3571,VALID,0,VALID,25.5123,VALID,78,VALID,0.646484,
2011-10-12, 01:29:05,VALID,1004.91,VALID,0,VALID,89.2808,VALID,0,VALID,25.5318,VALID,63,VALID,0.627344,
2011-10-12, 01:30:05,VALID,1004.82,VALID,0,VALID,88.907,VALID,0,VALID,25.5318,VALID,43,VALID,0.524609,
2011-10-12, 01:31:05,VALID,1004.79,VALID,0,VALID,88.8688,VALID,0,VALID,25.5318,VALID,49,VALID,0.197656,
2011-10-12, 01:32:05,VALID,1004.77,VALID,0,VALID,89.0443,VALID,0,VALID,25.5337,VALID,11,VALID,0.608594,
2011-10-12, 01:33:05,VALID,1004.71,VALID,0,VALID,89.113,VALID,0,VALID,25.4928,VALID,29,VALID,0.708984,
2011-10-12, 01:34:05,VALID,1004.68,VALID,0,VALID,89.1969,VALID,0,VALID,25.4734,VALID,1,VALID,0.54375,
2011-10-12, 01:35:05,VALID,1004.63,VALID,0,VALID,89.1969,VALID,0,VALID,25.4539,VALID,30,VALID,0.539844,
2011-10-12, 01:36:05,VALID,1004.6,VALID,0,VALID,89.2884,VALID,0,VALID,25.4363,VALID,38,VALID,0.308594,
2011-10-12, 01:37:05,VALID,1004.61,VALID,0,VALID,89.647,VALID,0,VALID,25.4149,VALID,66,VALID,0.652734,
2011-10-12, 01:38:05,VALID,1004.56,VALID,0,VALID,89.6775,VALID,0,VALID,25.4363,VALID,11,VALID,0.421484,
2011-10-12, 01:39:05,VALID,1004.57,VALID,0,VALID,89.8148,VALID,0,VALID,25.4149,VALID,81,VALID,0.316016,
2011-10-12, 01:40:05,VALID,1004.56,VALID,0,VALID,89.8606,VALID,0.0815089,VALID,25.3741,VALID,80,VALID,0.567969,
2011-10-12, 01:41:05,VALID,1004.56,VALID,0,VALID,89.9903,VALID,0,VALID,25.3955,VALID,82,VALID,0.735547,
2011-10-12, 01:42:05,VALID,1004.57,VALID,0,VALID,90.1581,VALID,0,VALID,25.376,VALID,69,VALID,0.282031,
2011-10-12, 01:43:05,VALID,1004.57,VALID,0,VALID,90.2191,VALID,0,VALID,25.3779,VALID,22,VALID,0.659375,
2011-10-12, 01:44:05,VALID,1004.59,VALID,0,VALID,90.3107,VALID,0,VALID,25.337,VALID,64,VALID,0.821094,
2011-10-12, 01:45:05,VALID,1004.6,VALID,0,VALID,90.2344,VALID,0,VALID,25.3176,VALID,80,VALID,0.607422,
2011-10-12, 01:46:05,VALID,1004.61,VALID,0,VALID,90.242,VALID,0,VALID,25.339,VALID,36,VALID,0.564844,
2011-10-12, 01:47:05,VALID,1004.58,VALID,0,VALID,89.6546,VALID,0,VALID,25.3584,VALID,82,VALID,1.30195,
2011-10-12, 01:48:05,VALID,1004.58,VALID,0,VALID,89.6088,VALID,0,VALID,25.337,VALID,89,VALID,0.463672,
2011-10-12, 01:49:05,VALID,1004.61,VALID,0,VALID,89.3876,VALID,0,VALID,25.3565,VALID,103,VALID,1.18828,
2011-10-12, 01:50:05,VALID,1004.63,VALID,0,VALID,89.441,VALID,0,VALID,25.337,VALID,102,VALID,1.22578,
2011-10-12, 01:51:05,VALID,1004.62,VALID,0,VALID,89.2579,VALID,0,VALID,25.3176,VALID,114,VALID,0.984766,
2011-10-12, 01:52:05,VALID,1004.63,VALID,0,VALID,89.5859,VALID,0,VALID,25.3176,VALID,136,VALID,0.930859,
2011-10-12, 01:53:05,VALID,1004.65,VALID,0,VALID,89.3266,VALID,0.0815089,VALID,25.2786,VALID,131,VALID,1.10039,
2011-10-12, 01:54:05,VALID,1004.65,VALID,0,VALID,89.3189,VALID,0,VALID,25.2806,VALID,156,VALID,1.28984,
2011-10-12, 01:55:05,VALID,1004.66,VALID,0,VALID,89.5478,VALID,0,VALID,25.2592,VALID,151,VALID,1.22656,
2011-10-12, 01:56:05,VALID,1004.69,VALID,0,VALID,89.6699,VALID,0,VALID,25.2007,VALID,133,VALID,1.84922,
2011-10-12, 01:57:05,VALID,1004.69,VALID,0,VALID,90.1886,VALID,0,VALID,25.1637,VALID,125,VALID,1.64531,
2011-10-12, 01:58:05,VALID,1004.69,VALID,0,VALID,90.2954,VALID,0,VALID,25.1053,VALID,128,VALID,1.55508,
2011-10-12, 01:59:05,VALID,1004.64,VALID,0,VALID,90.5777,VALID,0,VALID,25.045,VALID,115,VALID,1.29102,
2011-10-12, 02:00:05,VALID,1004.67,VALID,0,VALID,90.86,VALID,0.0815089,VALID,24.9847,VALID,99,VALID,0.758594,
2011-10-12, 02:01:05,VALID,1004.66,VALID,0,VALID,90.86,VALID,0,VALID,24.9866,VALID,97,VALID,0.933984,
2011-10-12, 02:02:05,VALID,1004.63,VALID,0,VALID,90.9515,VALID,0,VALID,24.9671,VALID,73,VALID,0.600391,
2011-10-12, 02:03:05,VALID,1004.65,VALID,0,VALID,91.0736,VALID,0,VALID,24.969,VALID,48,VALID,0.552734,
2011-10-12, 02:04:05,VALID,1004.64,VALID,0,VALID,91.127,VALID,0,VALID,24.9282,VALID,37,VALID,0.175391,
2011-10-12, 02:05:05,VALID,1004.61,VALID,0,VALID,91.127,VALID,0,VALID,24.8697,VALID,106,VALID,0.930078,
2011-10-12, 02:06:05,VALID,1004.66,VALID,0,VALID,91.2719,VALID,0,VALID,24.8697,VALID,101,VALID,0.437891,
2011-10-12, 02:07:05,VALID,1004.67,VALID,0,VALID,91.3177,VALID,0,VALID,24.8095,VALID,99,VALID,0.732031,
2011-10-12, 02:08:05,VALID,1004.68,VALID,0,VALID,91.4855,VALID,0,VALID,24.8327,VALID,114,VALID,0.801953,
2011-10-12, 02:09:05,VALID,1004.69,VALID,0,VALID,91.5695,VALID,0,VALID,24.8327,VALID,121,VALID,1.22578,
2011-10-12, 02:10:05,VALID,1004.71,VALID,0,VALID,91.8136,VALID,0,VALID,24.8327,VALID,142,VALID,1.09141,
2011-10-12, 02:11:05,VALID,1004.7,VALID,0,VALID,91.9356,VALID,0,VALID,24.8113,VALID,127,VALID,1.11055,
2011-10-12, 02:12:05,VALID,1004.72,VALID,0,VALID,91.6763,VALID,0,VALID,24.7724,VALID,132,VALID,0.867578,
2011-10-12, 02:13:05,VALID,1004.7,VALID,0,VALID,91.8136,VALID,0,VALID,24.7724,VALID,119,VALID,0.703125,
2011-10-12, 02:14:05,VALID,1004.67,VALID,0,VALID,91.6839,VALID,0,VALID,24.7724,VALID,88,VALID,0.728516,
2011-10-12, 02:15:05,VALID,1004.65,VALID,0,VALID,91.5161,VALID,0,VALID,24.7529,VALID,90,VALID,0.624609,
2011-10-12, 02:16:05,VALID,1004.64,VALID,0,VALID,91.5466,VALID,0,VALID,24.7335,VALID,77,VALID,0.332812,
2011-10-12, 02:17:05,VALID,1004.6,VALID,0,VALID,91.4626,VALID,0,VALID,24.6945,VALID,9,VALID,1.14453,
2011-10-12, 02:18:05,VALID,1004.6,VALID,0,VALID,91.8822,VALID,0,VALID,24.675,VALID,10,VALID,0.655469,
2011-10-12, 02:19:05,VALID,1004.55,VALID,0,VALID,90.5472,VALID,0,VALID,24.6166,VALID,360,VALID,0.934375,
2011-10-12, 02:20:05,VALID,1004.55,VALID,0,VALID,90.9515,VALID,0,VALID,24.5953,VALID,13,VALID,0.858203,
2011-10-12, 02:21:05,VALID,1004.51,VALID,0,VALID,90.6769,VALID,0,VALID,24.6166,VALID,14,VALID,0.852734,
2011-10-12, 02:22:05,VALID,1004.5,VALID,0,VALID,90.12,VALID,0,VALID,24.5777,VALID,32,VALID,0.415234,
2011-10-12, 02:23:05,VALID,1004.48,VALID,0,VALID,90.1047,VALID,0,VALID,24.5777,VALID,32,VALID,0.323047,
2011-10-12, 02:24:05,VALID,1004.44,VALID,0,VALID,90.0971,VALID,0,VALID,24.5777,VALID,28,VALID,0.462891,
2011-10-12, 02:25:05,VALID,1004.42,VALID,0,VALID,89.8987,VALID,0,VALID,24.5796,VALID,28,VALID,0.3875,
2011-10-12, 02:26:05,VALID,1004.39,VALID,0,VALID,89.769,VALID,0,VALID,24.5388,VALID,10,VALID,0.886328,
2011-10-12, 02:27:05,VALID,1004.38,VALID,0,VALID,89.9903,VALID,0,VALID,24.5582,VALID,12,VALID,0.43125,
2011-10-12, 02:28:05,VALID,1004.35,VALID,0,VALID,89.9826,VALID,0,VALID,24.5582,VALID,23,VALID,0.530469,
2011-10-12, 02:29:05,VALID,1004.35,VALID,0,VALID,89.9826,VALID,0,VALID,24.5369,VALID,23,VALID,0.392188,
2011-10-12, 02:30:05,VALID,1004.36,VALID,0,VALID,90.0284,VALID,0,VALID,24.498,VALID,23,VALID,0.369922,
2011-10-12, 02:31:05,VALID,1004.4,VALID,0,VALID,90.3259,VALID,0,VALID,24.5193,VALID,23,VALID,0.250781,
2011-10-12, 02:32:05,VALID,1004.4,VALID,0,VALID,90.2344,VALID,0,VALID,24.5388,VALID,358,VALID,0.719922,
2011-10-12, 02:33:05,VALID,1004.42,VALID,0,VALID,90.1276,VALID,0,VALID,24.5212,VALID,358,VALID,0.511328,
2011-10-12, 02:34:05,VALID,1004.43,VALID,0,VALID,90.0742,VALID,0,VALID,24.5212,VALID,358,VALID,0.458984,
2011-10-12, 02:35:05,VALID,1004.46,VALID,0,VALID,89.8682,VALID,0,VALID,24.523,VALID,358,VALID,0.305469,
2011-10-12, 02:36:05,VALID,1004.46,VALID,0,VALID,90.0742,VALID,0,VALID,24.4998,VALID,358,VALID,0,
2011-10-12, 02:37:05,VALID,1004.48,VALID,0,VALID,90.4633,VALID,0,VALID,24.5212,VALID,358,VALID,0,
2011-10-12, 02:38:05,VALID,1004.47,VALID,0,VALID,90.7455,VALID,0,VALID,24.5193,VALID,358,VALID,0,
2011-10-12, 02:39:05,VALID,1004.48,VALID,0,VALID,90.776,VALID,0,VALID,24.5017,VALID,358,VALID,0.203516,
2011-10-12, 02:40:05,VALID,1004.51,VALID,0,VALID,90.9591,VALID,0,VALID,24.4804,VALID,358,VALID,0.239063,
2011-10-12, 02:41:05,VALID,1004.48,VALID,0,VALID,91.0278,VALID,0,VALID,24.4841,VALID,358,VALID,0.348047,
2011-10-12, 02:42:05,VALID,1004.46,VALID,0,VALID,91.2338,VALID,0,VALID,24.422,VALID,358,VALID,0.463281,
2011-10-12, 02:43:05,VALID,1004.49,VALID,0,VALID,91.6915,VALID,0,VALID,24.3849,VALID,358,VALID,0.357812,
2011-10-12, 02:44:05,VALID,1004.47,VALID,0,VALID,92.0348,VALID,0,VALID,24.3441,VALID,359,VALID,0.653516,
2011-10-12, 02:45:05,VALID,1004.47,VALID,0,VALID,92.1874,VALID,0,VALID,24.3265,VALID,13,VALID,0.730469,
2011-10-12, 02:46:05,VALID,1004.48,VALID,0,VALID,91.9433,VALID,0,VALID,24.3265,VALID,21,VALID,0.904297,
2011-10-12, 02:47:05,VALID,1004.44,VALID,0,VALID,90.6616,VALID,0,VALID,24.3459,VALID,10,VALID,1.12188,
2011-10-12, 02:48:05,VALID,1004.43,VALID,0,VALID,90.5624,VALID,0,VALID,24.4609,VALID,15,VALID,0.786719,
2011-10-12, 02:49:05,VALID,1004.42,VALID,0,VALID,89.9292,VALID,0.0815089,VALID,24.5193,VALID,22,VALID,0.657812,
2011-10-12, 02:50:05,VALID,1004.4,VALID,0,VALID,89.3342,VALID,0.0815089,VALID,24.5777,VALID,32,VALID,0.464063,
2011-10-12, 02:51:05,VALID,1004.38,VALID,0,VALID,88.8612,VALID,0,VALID,24.6148,VALID,26,VALID,0.750781,
2011-10-12, 02:52:05,VALID,1004.33,VALID,0,VALID,87.0074,VALID,0,VALID,24.7724,VALID,26,VALID,1.1082,
2011-10-12, 02:53:05,VALID,1004.3,VALID,0,VALID,86.9464,VALID,0,VALID,24.8289,VALID,15,VALID,1.02695,
2011-10-12, 02:54:05,VALID,1004.3,VALID,0,VALID,85.6113,VALID,0,VALID,24.9087,VALID,20,VALID,2.01563,
2011-10-12, 02:55:05,VALID,1004.28,VALID,0,VALID,85.596,VALID,0.0815089,VALID,25.006,VALID,19,VALID,1.39805,
2011-10-12, 02:56:05,VALID,1004.27,VALID,0,VALID,84.528,VALID,0.0815089,VALID,25.1423,VALID,13,VALID,1.40664,
2011-10-12, 02:57:05,VALID,1004.28,VALID,0,VALID,83.9863,VALID,0.0815089,VALID,25.2202,VALID,16,VALID,1.39219,
2011-10-12, 02:58:05,VALID,1004.31,VALID,0,VALID,83.2463,VALID,0,VALID,25.2962,VALID,12,VALID,1.52734,
2011-10-12, 02:59:05,VALID,1004.33,VALID,0,VALID,83.4676,VALID,0,VALID,25.3974,VALID,32,VALID,0.355469,
2011-10-12, 03:00:05,VALID,1004.32,VALID,0,VALID,82.9107,VALID,0,VALID,25.3955,VALID,34,VALID,1.05469,
2011-10-12, 03:01:05,VALID,1004.35,VALID,0,VALID,83.8795,VALID,0,VALID,25.4149,VALID,20,VALID,0.507031,
2011-10-12, 03:02:05,VALID,1004.41,VALID,0,VALID,83.1777,VALID,0,VALID,25.376,VALID,46,VALID,0.908594,
2011-10-12, 03:03:05,VALID,1004.41,VALID,0,VALID,83.4905,VALID,0.0815089,VALID,25.3974,VALID,59,VALID,0.349219,
2011-10-12, 03:04:05,VALID,1004.41,VALID,0,VALID,83.7346,VALID,0.0815089,VALID,25.3546,VALID,63,VALID,0.6375,
2011-10-12, 03:05:05,VALID,1004.43,VALID,0,VALID,84.4364,VALID,0,VALID,25.337,VALID,64,VALID,0.377344,
2011-10-12, 03:06:05,VALID,1004.44,VALID,0,VALID,84.0855,VALID,0,VALID,25.3176,VALID,40,VALID,0.730469,
2011-10-12, 03:07:05,VALID,1004.43,VALID,0,VALID,84.9323,VALID,0,VALID,25.2962,VALID,23,VALID,0.393359,
2011-10-12, 03:08:05,VALID,1004.44,VALID,0,VALID,85.1536,VALID,0,VALID,25.2806,VALID,17,VALID,0.375391,
2011-10-12, 03:09:05,VALID,1004.44,VALID,0,VALID,84.8713,VALID,0,VALID,25.1988,VALID,17,VALID,0.525781,
2011-10-12, 03:10:05,VALID,1004.44,VALID,0,VALID,85.9317,VALID,0,VALID,25.1813,VALID,17,VALID,0.304297,
2011-10-12, 03:11:05,VALID,1004.45,VALID,0,VALID,86.1148,VALID,0.0815089,VALID,25.1423,VALID,17,VALID,0.524219,
2011-10-12, 03:12:05,VALID,1004.47,VALID,0,VALID,86.42,VALID,0,VALID,25.1034,VALID,21,VALID,0.285156,
2011-10-12, 03:13:05,VALID,1004.44,VALID,0,VALID,86.7099,VALID,0,VALID,25.0431,VALID,57,VALID,0.169922,
2011-10-12, 03:14:05,VALID,1004.45,VALID,0,VALID,86.8701,VALID,0.0815089,VALID,25.0041,VALID,57,VALID,0.229687,
2011-10-12, 03:15:05,VALID,1004.45,VALID,0,VALID,87.1905,VALID,0,VALID,24.9476,VALID,50,VALID,0.250781,
2011-10-12, 03:16:05,VALID,1004.5,VALID,0,VALID,87.2744,VALID,0,VALID,24.9282,VALID,50,VALID,0.324609,
2011-10-12, 03:17:05,VALID,1004.53,VALID,0,VALID,87.1676,VALID,0,VALID,24.9106,VALID,52,VALID,0.726953,
2011-10-12, 03:18:05,VALID,1004.58,VALID,0,VALID,87.3812,VALID,0,VALID,24.9087,VALID,36,VALID,0.311328,
2011-10-12, 03:19:05,VALID,1004.58,VALID,0,VALID,87.4346,VALID,0,VALID,24.9087,VALID,32,VALID,0.479688,
2011-10-12, 03:20:05,VALID,1004.62,VALID,0,VALID,87.6329,VALID,0,VALID,24.9671,VALID,30,VALID,0.882813,
2011-10-12, 03:21:04,VALID,1004.66,VALID,0,VALID,87.4346,VALID,0,VALID,25.006,VALID,35,VALID,0.372656,
2011-10-12, 03:22:04,VALID,1004.67,VALID,0,VALID,87.6406,VALID,0,VALID,25.0255,VALID,32,VALID,0.4625,
2011-10-12, 03:23:04,VALID,1004.72,VALID,0,VALID,87.7321,VALID,0.0815089,VALID,25.045,VALID,19,VALID,0.626172,
2011-10-12, 03:24:04,VALID,1004.71,VALID,0,VALID,87.9,VALID,0.0815089,VALID,25.0858,VALID,22,VALID,0.716797,
2011-10-12, 03:25:04,VALID,1004.74,VALID,0,VALID,88.0373,VALID,0.0815089,VALID,25.1034,VALID,17,VALID,0.751562,
2011-10-12, 03:26:04,VALID,1004.75,VALID,0,VALID,88.2814,VALID,0,VALID,25.1423,VALID,15,VALID,0.844922,
2011-10-12, 03:27:04,VALID,1004.76,VALID,0,VALID,88.1593,VALID,0,VALID,25.1618,VALID,28,VALID,1.37266,
2011-10-12, 03:28:04,VALID,1004.76,VALID,0,VALID,88.0068,VALID,0,VALID,25.2007,VALID,21,VALID,0.604688,
2011-10-12, 03:29:04,VALID,1004.77,VALID,0,VALID,88.1822,VALID,0.0815089,VALID,25.2007,VALID,14,VALID,0.208594,
2011-10-12, 03:30:04,VALID,1004.75,VALID,0,VALID,88.1822,VALID,0,VALID,25.2007,VALID,37,VALID,0.890234,
2011-10-12, 03:31:04,VALID,1004.74,VALID,0,VALID,88.4492,VALID,0,VALID,25.1794,VALID,21,VALID,0.676172,
2011-10-12, 03:32:04,VALID,1004.75,VALID,0,VALID,88.5408,VALID,0,VALID,25.2397,VALID,27,VALID,0.639844,
2011-10-12, 03:33:04,VALID,1004.75,VALID,0,VALID,88.7925,VALID,0,VALID,25.2397,VALID,14,VALID,0.817969,
2011-10-12, 03:34:04,VALID,1004.74,VALID,0,VALID,89.0061,VALID,0,VALID,25.2397,VALID,355,VALID,0.451562,
2011-10-12, 03:35:04,VALID,1004.73,VALID,0,VALID,89.0443,VALID,0,VALID,25.2397,VALID,100,VALID,0.629297,
2011-10-12, 03:36:04,VALID,1004.74,VALID,0,VALID,89.113,VALID,0.0815089,VALID,25.2592,VALID,71,VALID,0.564453,
2011-10-12, 03:37:04,VALID,1004.74,VALID,0,VALID,89.029,VALID,0.0815089,VALID,25.2378,VALID,59,VALID,0.167578,
2011-10-12, 03:38:04,VALID,1004.74,VALID,0,VALID,89.3037,VALID,0,VALID,25.2592,VALID,34,VALID,0.539063,
2011-10-12, 03:39:04,VALID,1004.73,VALID,0,VALID,89.5478,VALID,0,VALID,25.2806,VALID,360,VALID,0.521484,
2011-10-12, 03:40:04,VALID,1004.74,VALID,0,VALID,89.4715,VALID,0.0815089,VALID,25.2592,VALID,47,VALID,0.913672,
2011-10-12, 03:41:04,VALID,1004.74,VALID,0,VALID,89.4181,VALID,0,VALID,25.2786,VALID,26,VALID,0.141406,
2011-10-12, 03:42:04,VALID,1004.73,VALID,0,VALID,89.4105,VALID,0.0815089,VALID,25.2572,VALID,26,VALID,0.585547,
2011-10-12, 03:43:04,VALID,1004.69,VALID,0,VALID,89.5631,VALID,0.0815089,VALID,25.2592,VALID,19,VALID,0.260547,
2011-10-12, 03:44:04,VALID,1004.69,VALID,0,VALID,89.8224,VALID,0,VALID,25.2397,VALID,19,VALID,0.349609,